カタログに戻る

STARLINK-34192

運用中通信VLEO
NORAD 64014·PAYLOAD·🇺🇸 United States

打ち上げ May 14, 2025 から Cape Canaveral Space Force Station

Loading…

次のパス (今後24時間)

TLE

最新Source: CelesTrak SupGP

元期: Sep 15, 2026, 02:59 UTC

1 64014C 25101W   26258.12479167  .00020134  00000+0  72949-3 0  2585
2 64014  43.0021   8.5031 0001338 254.8247  66.3405 15.27557662    12

AllMySatでSTARLINK-34192をリアルタイム追跡

Download on the App Store